Total_Precipitation_Accumulation
3.21 3.32 3.41 3.58 3.32 3.36 3.76 3.93 3.71 3.83 3.75 3.44 3.17 2.90 2.77 2.59 2.52 2.54 2.64 2.59 2.47 2.60 2.95 3.12 2.97 2.85 2.61 2.31 2.13 2.07 2.01 1.88 1.78 1.59 1.44 1.49 1.62 1.57 1.34 1.20 1.20 1.08 1.03
3.53 3.73 3.64 3.73 3.51 3.30 3.49 3.69 3.66 4.28 4.10 3.89 3.37 3.05 2.98 2.91 2.75 2.69 2.73 2.82 2.58 2.43 2.61 3.07 3.24 3.15 2.99 2.72 2.47 2.26 2.15 2.06 1.80 1.45 1.31 1.30 1.50 1.58 1.50 1.36 1.24 1.13 1.01
3.52 3.75 3.94 3.89 3.65 3.42 3.60 3.70 3.91 4.17 3.89 3.71 3.38 3.15 3.03 2.98 2.77 2.69 2.90 3.10 2.80 2.65 2.61 2.80 3.16 3.36 3.45 3.44 3.13 2.68 2.31 2.04 1.82 1.53 1.33 1.25 1.39 1.50 1.45 1.46 1.36 1.18 1.01
3.52 3.75 3.71 3.62 3.71 3.64 3.83 4.08 4.20 4.21 4.07 3.91 3.65 3.26 3.00 3.01 2.55 2.44 2.55 2.69 2.81 2.58 2.76 3.03 3.24 3.31 3.57 3.75 3.69 3.54 3.05 2.44 2.05 1.73 1.49 1.36 1.39 1.42 1.38 1.41 1.40 1.22 1.02
3.30 3.57 3.58 3.67 3.76 3.78 3.81 3.50 4.06 4.06 4.10 3.95 3.37 3.16 2.82 2.77 2.61 2.29 2.28 2.18 2.37 2.44 2.49 2.63 2.91 3.01 3.51 3.92 4.08 4.11 3.96 3.35 2.67 2.23 2.03 1.84 1.73 1.56 1.42 1.39 1.40 1.32 1.14
3.33 3.57 3.56 3.67 3.70 3.81 3.85 3.79 4.07 4.01 3.83 3.77 3.06 2.93 2.74 2.39 2.35 2.32 2.12 2.08 2.19 2.08 2.22 2.48 2.79 2.51 2.93 3.41 3.64 3.97 4.28 4.11 3.53 3.03 2.79 2.62 2.40 2.06 1.72 1.59 1.57 1.53 1.37
3.46 3.79 3.67 3.99 3.89 3.69 3.64 3.73 3.99 3.87 3.59 3.61 3.63 3.14 2.53 2.18 2.21 2.07 2.16 2.25 2.09 2.08 2.31 2.69 2.83 2.65 2.36 2.46 2.56 2.94 3.72 4.32 4.25 3.82 3.49 3.17 3.00 2.75 2.21 2.00 1.91 1.81 1.69
3.40 3.41 3.73 3.65 3.68 3.79 3.68 3.67 3.91 3.72 3.29 3.43 3.72 3.72 3.01 2.74 2.26 1.78 2.03 2.13 2.18 2.40 2.48 2.50 2.82 2.96 2.68 2.78 2.21 2.15 2.93 3.87 4.43 4.47 4.09 3.66 3.41 3.23 2.86 2.67 2.39 2.06 1.91
3.00 3.15 3.27 3.36 3.68 3.58 3.62 3.69 3.63 3.56 3.28 3.22 3.40 3.73 3.32 2.87 2.35 1.81 1.74 2.02 2.39 2.57 2.52 2.60 2.69 2.88 2.95 3.20 3.04 2.55 2.46 2.77 3.65 4.50 4.56 4.16 3.66 3.29 3.20 3.24 3.03 2.58 2.25
2.88 2.94 3.04 3.14 3.23 3.08 3.23 2.96 3.09 3.39 3.52 3.22 3.32 3.25 3.17 3.06 2.92 2.36 1.98 1.97 2.25 2.41 2.59 2.56 2.66 2.81 3.06 3.48 3.55 3.04 2.58 2.34 2.70 3.70 4.47 4.59 4.19 3.74 3.65 3.79 3.92 3.56 2.94
2.92 2.89 2.90 2.94 2.91 2.75 2.86 2.85 3.08 3.10 3.12 3.11 3.19 3.26 3.34 3.27 3.05 2.88 2.54 2.41 2.31 2.07 2.14 2.33 2.56 2.72 2.94 3.34 3.52 3.18 3.06 2.78 2.64 2.83 3.45 4.05 4.23 4.10 3.91 3.98 4.34 4.47 4.06
2.79 2.72 2.68 2.74 2.72 2.69 2.74 2.81 2.94 2.86 2.91 3.06 3.11 3.13 3.27 3.25 3.27 3.27 2.76 2.54 2.36 1.92 1.89 1.88 2.09 2.34 2.72 3.07 2.93 3.01 2.94 2.72 2.54 2.52 2.61 3.05 3.41 3.61 3.71 3.95 4.42 4.91 5.01
2.32 2.41 2.35 2.49 2.50 2.53 2.57 2.70 2.78 2.76 2.89 3.05 2.97 3.02 3.07 3.00 3.11 3.20 3.07 2.66 2.40 2.05 2.11 2.04 2.03 2.24 2.36 2.76 2.78 2.69 2.47 2.38 2.19 2.13 2.11 2.26 2.53 2.76 2.98 3.29 3.78 4.34 4.78
2.00 2.19 2.32 2.36 2.34 2.35 2.43 2.70 2.54 2.58 2.78 2.82 2.74 3.14 3.01 2.75 2.88 2.98 3.15 3.26 2.88 2.46 2.46 2.33 2.22 2.23 2.36 2.56 2.54 2.46 2.21 2.15 1.91 1.78 1.72 1.72 1.73 1.86 2.08 2.36 2.73 3.04 3.37
2.04 2.11 2.16 2.25 2.34 2.47 2.62 2.77 2.58 2.69 2.93 2.81 2.89 3.17 3.02 2.86 2.87 2.86 3.15 3.46 3.47 3.07 2.74 2.53 2.34 2.25 2.24 2.20 2.31 2.14 2.09 2.09 1.88 1.72 1.58 1.47 1.42 1.40 1.49 1.64 1.86 2.10 2.29
2.11 1.99 1.94 2.01 2.08 2.18 2.35 2.50 2.40 2.54 2.80 2.74 2.78 2.93 2.90 2.84 3.05 3.05 3.15 3.41 3.61 3.54 2.95 2.71 2.59 2.28 2.32 1.96 2.13 2.01 1.97 1.94 1.73 1.60 1.49 1.44 1.41 1.39 1.39 1.42 1.51 1.64 1.82
2.04 1.97 1.95 1.95 1.93 1.89 1.98 2.13 2.12 2.35 2.39 2.39 2.34 2.45 2.46 2.72 2.93 2.89 3.05 3.21 3.45 3.68 3.26 3.00 3.04 2.76 2.70 2.42 2.19 1.99 1.75 1.70 1.57 1.54 1.41 1.33 1.30 1.29 1.31 1.29 1.27 1.33 1.46
1.82 1.93 1.97 1.89 1.75 1.79 1.93 1.94 1.99 2.21 2.31 2.28 2.27 2.37 2.26 2.46 2.58 2.64 2.84 3.00 3.27 3.68 3.49 3.20 3.14 3.02 2.88 2.64 2.42 2.18 1.75 1.50 1.52 1.64 1.46 1.31 1.24 1.20 1.21 1.20 1.13 1.11 1.14
1.66 1.73 1.78 1.72 1.68 1.80 2.01 2.10 2.21 2.27 2.18 2.16 2.13 2.04 1.98 2.17 2.21 2.38 2.55 2.58 2.78 3.19 3.27 2.97 2.86 3.08 2.92 2.68 2.70 2.36 2.07 1.98 1.53 1.54 1.46 1.29 1.22 1.14 1.13 1.16 1.14 1.07 1.04
1.60 1.68 1.74 1.86 1.92 1.92 1.89 1.93 2.07 2.21 2.19 2.03 1.86 1.74 1.75 1.91 1.93 2.07 2.13 2.34 2.54 2.67 2.88 2.83 2.73 2.85 2.88 2.79 2.94 2.71 2.50 2.33 1.97 1.62 1.62 1.37 1.25 1.18 1.13 1.10 1.10 1.11 1.12
1.54 1.73 1.96 2.05 2.04 1.93 1.78 1.88 1.99 1.89 1.90 1.79 1.63 1.49 1.42 1.44 1.50 1.65 1.62 1.90 2.20 2.31 2.40 2.53 2.54 2.63 2.87 3.00 2.87 2.86 2.71 2.54 2.32 2.10 2.05 1.64 1.33 1.17 1.14 1.14 1.15 1.18 1.21
1.58 1.76 1.81 1.83 1.78 1.60 1.72 1.62 1.56 1.57 1.60 1.60 1.60 1.57 1.39 1.28 1.27 1.32 1.34 1.42 1.63 1.78 1.98 2.25 2.33 2.43 2.68 2.97 3.04 3.04 2.93 2.71 2.49 2.29 2.40 2.33 1.95 1.66 1.44 1.20 1.19 1.21 1.28
1.69 1.68 1.62 1.63 1.65 1.76 1.64 1.41 1.34 1.33 1.44 1.51 1.56 1.54 1.29 1.16 1.23 1.19 1.26 1.26 1.32 1.40 1.52 1.79 1.92 2.00 2.28 2.60 2.94 2.99 3.06 2.87 2.61 2.54 2.63 2.65 2.69 2.44 1.85 1.50 1.43 1.26 1.30
1.79 1.71 1.54 1.54 1.56 1.55 1.51 1.34 1.33 1.24 1.30 1.40 1.48 1.51 1.49 1.41 1.32 1.36 1.39 1.31 1.20 1.22 1.26 1.21 1.32 1.58 1.80 2.07 2.47 2.64 2.92 3.07 2.90 2.78 2.79 2.85 2.86 3.07 2.56 2.01 1.84 1.58 1.50
1.74 1.79 1.69 1.61 1.57 1.55 1.52 1.35 1.33 1.26 1.35 1.40 1.51 1.54 1.51 1.43 1.44 1.42 1.40 1.38 1.25 1.19 1.18 1.17 1.17 1.31 1.55 1.70 1.98 2.30 2.60 2.81 2.90 2.96 3.01 3.06 2.96 3.10 3.37 2.89 2.18 1.82 1.57
1.99 2.03 1.91 1.82 1.84 1.85 1.89 1.68 1.55 1.40 1.43 1.47 1.60 1.59 1.51 1.43 1.52 1.42 1.27 1.32 1.30 1.32 1.37 1.32 1.30 1.33 1.38 1.55 1.84 2.07 2.35 2.64 2.68 2.77 2.61 2.61 2.62 2.76 3.19 3.34 2.92 2.27 1.80